Miscellaneous Local Product
Issued by NWS North Platte, NE

Home | Current Version | Previous Version | Graphics & Text | Print | Product List | Glossary On
Versions: 1 2 3 4 5 6 7 8 9 10 11 12 13 14 15 16 17 18 19 20 21 22 23 24 25 26 27 28 29 30 31 32 33 34 35 36 37 38 39 40 41 42 43 44 45 46 47 48 49 50
000
AXUS43 KLBF 281410
MISLBF


WESTERN AND NORTH CENTRAL NEBRASKA HOURLY WEATHER ROUNDUP
NATIONAL WEATHER SERVICE NORTH PLATTE NE
900 AM CDT SUN MAY 28 2017

NOTE: "FAIR" INDICATES FEW OR NO CLOUDS BELOW 12,000 FEET WITH NO
SIGNIFICANT WEATHER AND/OR OBSTRUCTIONS TO VISIBILITY.

NOTE: STATIONS NOT REPORTING VARIABLES SUCH AS SKY/WEATHER OR
PRESSURE ARE PROVIDED BY RAWS AND APRS NETWORKS AND ARE NOT UNDER
NATIONAL WEATHER SERVICE QUALITY CONTROL.

...OBSERVATIONS IN AND NEAR THE EASTERN PANHANDLE OF NEBRASKA...

CITY           SKY/WX    TMP DP  RH WIND       PRES   REMARKS
PINE RIDGE     PTSUNNY   57  48  72 W8        30.10R
GORDON         FAIR      59  46  61 NW10      30.09R
CHADRON        SUNNY     58  44  60 NW15G21   30.12R
ALLIANCE       MOSUNNY   57  46  66 W9        30.13R
SIDNEY         SUNNY     56  41  57 NW13      30.19R
CRESCENT LAKE    N/A     59  45  59 NW9         N/A
$$

...OBSERVATIONS IN NORTHERN NEBRASKA AND FAR SOUTHERN SOUTH DAKOTA...

CITY           SKY/WX    TMP DP  RH WIND       PRES   REMARKS
WINNER         FAIR      63  47  55 NW18      29.97R
VALENTINE      SUNNY     63  44  50 NW17G24   30.02R
THEDFORD       SUNNY     61  47  59 NW10      30.05S
AINSWORTH      SUNNY     62  47  57 W16       30.01S
O`NEILL        PTSUNNY   62  47  57 W12       29.96S
ORD            SUNNY     61  48  62 NW10      29.98R
BROKEN BOW     SUNNY     63  47  55 NW15      30.02R
VALENTINE NWR    N/A     59  43  55 NW14        N/A
HALSEY           N/A     60  44  55 W9          N/A
BUTTE            N/A     63  46  54 NW18G26     N/A
CHAMBERS         N/A     69  48  47 CALM        N/A
EWING            N/A     64  50  61 W8          N/A
$$

...OBSERVATIONS IN SOUTHWEST NEBRASKA AND FAR NORTHEAST COLORADO...

CITY           SKY/WX    TMP DP  RH WIND       PRES   REMARKS
WRAY           FAIR      59  43  55 NW10      30.18R
IMPERIAL       SUNNY     59  42  53 NW15      30.14R
OGALLALA       SUNNY     59  47  63 W9        30.13R
NORTH PLATTE   SUNNY     56  47  71 W13       30.09R
MCCOOK         SUNNY     58  47  66 NW14      30.09R
LEXINGTON      SUNNY     58  50  73 NW12      30.06R
STAPLETON        N/A     61  50  67 CALM        N/A
GOTHENBURG       N/A     51  43  75 W7          N/A
CALLAWAY         N/A     55  47  76 NW12        N/A
$$

...OBSERVATIONS IN CENTRAL LINCOLN COUNTY AREA...

CITY           SKY/WX    TMP DP  RH WIND       PRES   REMARKS
N.P. AIRPORT   SUNNY     56  47  71 W13       30.09R
N.P. DOWNTOWN    N/A     57  48  72 W3G12       N/A
N.P. SOUTHEAST   N/A     56  46  69 NW3         N/A
N.P. HILLCREST   N/A     55  49  79 W8          N/A
$$

...SOME OBSERVATIONS FROM AROUND THE REGION...

CITY           SKY/WX    TMP DP  RH WIND       PRES   REMARKS
DENVER         SUNNY     52  37  56 SW12      30.28R
LIMON          SUNNY     51  41  68 W10       30.28R
ASPEN          CLOUDY    40  27  59 VRB3      30.39R
LARAMIE        SUNNY     42  32  67 S5        30.33R
CASPER         CLOUDY    53  37  54 W13       30.26R
CHEYENNE       SUNNY     53  32  44 NW9       30.28R
SCOTTSBLUFF    SUNNY     54  41  61 NW9       30.18S
GRAND ISLAND   SUNNY     63  50  62 NW13      30.00R
OMAHA          SUNNY     65  52  62 NW6       29.91S
SIOUX FALLS    MOSUNNY   62  49  62 VRB7      29.87R
PIERRE         SUNNY     61  43  51 NW16      29.95R
RAPID CITY     CLOUDY    61  40  45 NW15      30.09R
BISMARCK       SUNNY     61  43  51 NW15G22   29.93R
KANSAS CITY    MOSUNNY   67  56  67 NW8       29.93R
HILL CITY      SUNNY     62  48  60 NW13      30.08R
WICHITA        MOSUNNY   66  54  65 N13       30.02R
DODGE CITY     SUNNY     61  49  64 NW13      30.11S
OKLAHOMA CITY  MOSUNNY   69  59  70 N17       30.02R
DALLAS         RAIN      73  71  93 E8        29.93R FOG
AMARILLO       SUNNY     59  47  64 N18       30.22R
$$




USA.gov is the U.S. government's official web portal to all federal, state and local government web resources and services.